Location: Helsinki
(60.1699°N, 24.9384°E)
Time: 08:36:12
(UTC+03:00)

A-11 Canister half - Pass Details

Date: 01 June 2024
Orbit: 1524 x 1684 km, 47.3° (Epoch: 18 June)

Event Time Altitude Azimuth Distance (km) Brightness Sun altitude
Rises 00:46:03 0° 269° (W) 4,707 11.6 -7.5°
Reaches altitude 10° 00:49:29 10° 259° (W) 3,740 11.0 -7.5°
Maximum altitude 00:57:21 31° 203° (SSW) 2,502 9.7 -7.6°
Drops below altitude 10° 01:05:26 10° 146° (SE) 3,837 10.6 -7.7°
Sets 01:09:02 0° 137° (SE) 4,846 11.2 -7.7°
